Wind_Speed
45 40 33 30 31 23 24 25 19 20 17 16 14 16 15 14 14 15 16 16 14 13 12 12 11 11 10 10 10 10 10 9 9 9 10 10 10 10 10 9 9 8 9
44 39 39 32 28 24 22 21 19 19 17 15 16 15 15 15 14 14 14 15 13 12 11 10 10 9 9 8 8 8 8 7 6 7 8 8 9 9 9 9 9 9 9
45 41 35 35 28 25 24 22 21 18 16 16 16 16 15 15 14 14 14 14 14 12 11 9 8 8 8 7 6 5 5 4 4 5 6 6 7 7 8 9 9 10 11
43 41 33 30 27 28 25 21 20 18 16 16 16 15 14 14 14 14 12 11 11 11 11 11 8 7 6 5 4 3 3 2 2 3 4 5 6 7 8 9 10 11 11
42 39 35 35 33 32 30 27 22 19 16 15 15 14 13 12 13 12 13 13 12 12 11 9 8 8 8 7 6 6 5 5 3 2 1 1 3 4 7 9 10 12 12
41 38 34 28 26 21 19 16 18 18 16 14 14 13 13 12 12 13 13 13 13 15 14 14 12 13 12 10 9 10 10 10 9 8 7 6 6 7 9 11 13 14 16
41 38 36 28 26 28 23 21 23 22 17 15 14 12 11 12 13 13 13 13 15 16 15 15 15 13 14 14 14 14 15 16 16 15 14 14 13 13 14 17 17 20 21
37 33 33 36 36 32 27 28 24 20 15 17 15 12 11 11 14 16 15 16 16 15 16 18 20 21 23 20 19 19 20 20 19 19 20 22 21 20 21 22 23 24 24
42 36 38 42 36 29 29 25 24 20 16 16 16 10 8 8 9 9 15 18 19 21 20 21 22 24 24 23 21 22 22 22 21 22 21 21 22 22 23 24 26 27 29
41 44 39 42 39 31 27 24 21 20 18 15 17 16 14 6 7 8 11 12 16 20 22 21 23 24 23 26 29 29 30 28 25 24 25 25 26 27 27 28 28 29 30
43 40 39 35 37 36 30 30 22 21 22 18 16 17 21 18 19 13 13 16 20 20 22 23 24 24 27 29 30 33 31 31 28 27 28 28 29 30 30 32 32 31 30
47 46 40 34 35 36 31 33 33 23 22 23 20 19 18 17 18 21 20 15 20 18 20 19 20 23 25 25 28 28 29 29 28 28 30 29 29 31 30 31 31 31 30
48 47 43 40 38 34 34 35 28 26 26 24 23 25 23 22 18 19 21 25 24 23 26 30 27 28 23 25 27 27 26 28 27 28 26 26 27 28 30 30 30 31 31
55 50 47 42 37 36 39 39 33 29 29 25 26 26 26 24 23 22 22 23 23 29 27 28 27 27 28 29 27 23 24 25 27 27 25 26 27 29 30 29 28 28 28
55 53 50 53 52 49 46 44 38 35 36 32 31 28 27 27 25 25 25 27 30 21 28 28 27 30 27 24 26 25 24 26 27 26 25 27 29 29 29 28 28 28 30
55 51 57 55 55 48 46 46 43 38 42 40 36 34 31 29 27 29 29 30 33 33 30 27 26 23 27 27 28 27 24 25 27 26 27 29 29 28 28 28 28 29 30
50 48 48 57 54 50 49 48 50 44 40 37 35 34 34 34 32 32 31 33 30 28 31 31 22 28 31 24 24 26 26 27 26 26 29 26 26 27 28 28 28 28 28
43 46 44 43 49 51 50 47 48 42 38 39 39 36 42 41 42 42 50 42 37 36 36 43 33 30 31 30 29 29 27 27 23 21 28 26 26 27 27 27 27 26 28
43 43 44 44 46 47 44 43 43 42 42 42 42 43 45 44 45 46 45 46 45 37 40 36 37 37 37 34 32 34 32 29 28 28 28 29 28 27 26 26 26 27 29
43 42 43 43 44 43 43 44 44 44 46 46 47 49 47 42 44 36 32 28 29 40 42 44 41 40 40 34 32 31 30 26 24 21 22 26 27 26 26 26 26 28 30
43 45 45 45 45 44 46 45 45 46 45 45 50 41 42 39 38 33 29 32 37 44 46 47 48 46 38 32 32 31 27 26 23 26 25 22 24 22 23 26 28 29 31
46 44 46 47 47 48 50 52 50 45 46 48 47 43 45 42 41 37 37 40 41 42 45 51 49 44 37 34 30 29 25 21 19 20 20 23 20 22 25 26 21 27 30
42 45 45 44 44 46 49 49 48 47 48 48 45 47 45 43 40 37 40 44 46 40 39 44 44 39 31 27 26 22 22 22 24 19 17 21 24 27 27 22 25 29 32
43 43 44 43 42 42 41 41 41 43 46 49 48 47 40 42 44 42 42 42 39 36 37 35 28 26 21 20 16 20 20 16 18 22 22 25 22 24 21 24 23 29 32
40 43 40 40 40 38 37 37 37 40 40 40 42 43 43 41 42 43 40 37 37 35 30 25 23 17 12 15 18 19 18 17 22 19 19 20 21 26 19 26 29 19 19
36 34 34 36 37 37 38 37 39 40 39 38 40 41 40 38 35 32 30 30 30 26 22 19 16 11 16 20 18 18 19 19 19 15 14 20 18 16 22 18 19 19 23
Wind_Direction
176 182 172 174 163 167 163 153 150 159 158 161 159 151 148 150 150 152 152 152 147 146 138 127 126 124 113 103 97 87 77 72 69 67 60 55 56 58 56 47 42 36 28
182 177 167 175 161 168 167 158 165 159 161 161 159 157 152 154 151 150 161 152 151 147 139 140 132 124 110 101 91 82 78 76 72 62 58 54 51 48 43 36 29 26 21
173 163 172 169 167 166 166 169 164 154 159 159 161 161 157 156 156 159 162 169 160 160 162 155 154 136 135 127 113 107 101 90 78 57 49 48 42 33 25 21 18 16 12
170 163 170 171 169 175 169 172 158 159 168 165 167 166 163 162 162 166 165 175 179 186 182 184 180 172 171 162 163 157 157 148 107 72 58 46 30 13 1 357 355 355 359
168 163 174 183 180 177 170 173 159 167 172 171 175 172 170 170 174 175 179 179 189 192 215 213 216 212 210 209 213 224 231 231 230 235 275 330 351 347 339 335 331 335 339
167 176 187 185 174 167 168 177 175 164 179 179 182 178 176 180 188 193 194 194 199 199 205 244 250 241 231 232 236 242 252 251 253 254 266 270 292 304 314 319 317 319 321
179 188 186 179 169 172 173 195 187 176 174 186 184 181 188 192 198 203 203 207 211 224 220 208 245 261 249 245 244 244 238 240 253 266 273 283 293 304 296 305 301 307 305
177 173 182 181 182 184 188 195 185 179 181 187 183 182 191 207 217 213 213 224 231 225 231 230 226 227 239 253 252 251 244 236 238 248 264 271 284 293 295 298 299 301 299
188 193 194 191 191 195 193 187 189 183 185 193 184 187 200 208 199 232 239 230 234 239 237 250 249 249 249 240 249 248 247 246 245 240 239 251 268 275 283 288 284 286 283
192 196 199 193 196 192 197 191 200 207 200 209 212 218 225 204 200 240 261 246 249 254 254 245 247 251 249 253 250 252 251 251 246 247 252 248 252 258 262 267 272 278 283
195 201 203 197 198 202 202 204 205 221 223 206 224 228 233 243 248 236 246 248 260 254 253 252 254 256 261 257 256 252 249 252 247 252 259 257 258 264 266 270 273 275 273
196 199 202 201 204 203 214 215 211 229 230 228 224 229 231 228 244 247 255 261 258 254 242 263 266 260 255 257 259 254 246 248 244 253 265 260 266 269 271 275 278 279 278
198 203 205 209 210 214 217 216 226 231 233 234 231 238 244 246 243 248 251 264 257 251 259 270 272 264 256 246 252 256 247 245 250 260 255 260 264 270 275 276 278 280 280
202 204 204 208 209 217 216 222 234 234 236 243 249 244 246 245 245 253 249 254 258 260 263 269 271 251 242 249 256 250 246 246 251 252 256 259 267 272 273 277 279 279 280
207 210 216 222 227 227 231 227 230 234 237 245 250 249 244 246 248 252 248 251 251 253 263 274 266 252 250 237 245 247 241 243 247 252 258 267 274 273 275 277 278 282 282
220 220 223 224 230 234 229 225 232 239 240 246 248 249 249 252 254 256 256 258 261 260 260 269 270 234 240 233 241 243 240 239 249 253 266 272 273 272 272 275 278 280 281
219 216 220 229 229 229 227 232 235 238 242 247 247 249 251 255 265 258 264 268 261 253 269 269 246 227 238 238 230 244 235 241 251 259 270 273 269 270 273 276 280 282 283
221 219 218 231 227 226 230 231 233 236 236 241 245 248 256 264 262 268 274 264 261 256 274 255 242 230 236 231 241 245 236 240 246 254 269 276 271 270 273 278 281 280 284
218 221 219 222 223 225 229 233 232 235 239 244 249 249 256 268 262 270 273 272 257 247 257 241 243 239 234 233 242 241 242 244 248 260 271 273 270 273 277 276 275 281 289
219 221 223 225 225 227 229 232 235 240 244 248 250 250 257 258 265 272 265 255 245 247 249 243 233 233 234 237 238 240 241 249 258 259 265 273 274 276 273 273 276 283 289
223 223 223 227 229 230 233 234 237 240 243 245 249 252 253 260 263 261 251 243 253 256 254 241 234 229 230 238 234 243 244 250 252 266 262 263 271 274 277 281 283 285 290
223 223 225 227 229 232 237 238 237 239 241 245 246 249 257 262 256 262 253 258 262 260 251 244 232 229 230 231 236 236 245 253 255 268 260 260 260 268 280 281 273 275 282
223 225 225 226 229 232 238 241 242 241 240 247 253 257 261 256 259 261 257 256 259 254 253 249 235 230 226 225 233 243 244 244 252 250 259 261 264 274 279 271 271 282 286
222 224 226 227 230 233 240 242 243 243 245 249 253 260 262 259 260 258 258 251 249 244 237 229 229 222 228 233 241 243 246 246 248 252 257 267 276 279 274 265 267 274 284
224 227 225 228 229 233 238 240 240 246 250 251 254 259 262 259 252 255 256 243 237 228 219 219 220 227 240 249 243 237 246 255 265 262 262 269 267 280 279 263 276 281 277
222 225 226 226 226 229 231 236 243 246 249 251 251 254 253 250 248 246 240 233 221 213 213 213 219 238 239 242 245 250 257 247 251 269 276 253 255 268 288 281 266 257 276
Height
1508 1517 1526 1532 1537 1543 1546 1548 1552 1556 1560 1563 1566 1568 1571 1574 1576 1575 1574 1576 1577 1579 1581 1583 1584 1585 1587 1588 1590 1589 1591 1592 1593 1594 1593 1593 1593 1593 1594 1594 1593 1593 1592
1510 1514 1518 1532 1538 1542 1547 1550 1553 1555 1559 1563 1566 1568 1572 1574 1577 1575 1575 1575 1578 1580 1583 1584 1585 1586 1587 1588 1590 1589 1591 1591 1592 1592 1593 1593 1593 1594 1594 1595 1594 1593 1592
1506 1511 1522 1530 1536 1541 1546 1548 1553 1554 1560 1562 1566 1569 1570 1574 1575 1577 1576 1576 1577 1581 1582 1583 1585 1586 1587 1588 1589 1590 1591 1592 1593 1592 1592 1593 1593 1593 1593 1593 1594 1593 1592
1507 1511 1521 1527 1534 1538 1543 1547 1551 1554 1560 1563 1566 1568 1570 1573 1574 1577 1579 1579 1579 1582 1582 1583 1585 1585 1587 1587 1588 1589 1590 1590 1592 1591 1591 1590 1591 1592 1593 1593 1593 1591 1591
1504 1513 1523 1528 1532 1536 1541 1546 1549 1553 1559 1563 1566 1567 1569 1571 1573 1576 1578 1580 1581 1583 1582 1582 1583 1584 1585 1586 1586 1587 1588 1589 1589 1591 1590 1589 1589 1589 1590 1591 1591 1590 1588
1509 1520 1526 1531 1533 1537 1541 1546 1550 1554 1558 1561 1565 1566 1567 1569 1572 1574 1576 1577 1579 1580 1582 1581 1582 1583 1583 1584 1583 1584 1586 1586 1588 1588 1587 1588 1587 1586 1587 1588 1588 1587 1587
1515 1520 1525 1528 1531 1536 1539 1545 1549 1553 1556 1560 1563 1564 1565 1567 1569 1571 1572 1573 1574 1575 1576 1579 1579 1580 1579 1580 1580 1580 1581 1583 1584 1585 1584 1584 1585 1585 1584 1585 1584 1584 1583
1515 1521 1525 1529 1533 1537 1541 1545 1548 1550 1554 1557 1559 1560 1563 1566 1565 1566 1567 1568 1570 1572 1572 1573 1575 1577 1576 1575 1575 1575 1576 1578 1580 1581 1581 1580 1580 1579 1579 1579 1579 1579 1578
1512 1518 1522 1526 1530 1535 1538 1542 1544 1548 1551 1552 1554 1557 1559 1560 1562 1564 1563 1565 1566 1566 1567 1567 1569 1570 1570 1572 1570 1570 1572 1574 1574 1576 1578 1577 1577 1576 1576 1575 1575 1573 1572
1509 1514 1518 1522 1528 1532 1535 1538 1541 1543 1546 1547 1550 1553 1555 1557 1558 1560 1562 1560 1562 1563 1562 1563 1563 1564 1564 1564 1564 1565 1565 1567 1568 1570 1571 1571 1572 1572 1572 1572 1571 1570 1569
1506 1511 1516 1520 1524 1528 1532 1534 1534 1539 1542 1544 1546 1549 1552 1554 1555 1557 1558 1557 1557 1556 1558 1558 1558 1558 1558 1556 1556 1556 1559 1560 1562 1564 1565 1565 1565 1565 1564 1564 1564 1563 1563
1502 1508 1512 1516 1521 1524 1527 1530 1533 1536 1537 1540 1543 1545 1547 1548 1549 1550 1551 1551 1554 1553 1553 1552 1553 1553 1552 1553 1552 1550 1552 1554 1555 1557 1557 1558 1558 1559 1558 1557 1556 1555 1554
1496 1501 1507 1511 1515 1520 1523 1526 1529 1532 1533 1535 1539 1541 1543 1545 1546 1545 1546 1545 1547 1546 1547 1546 1544 1545 1547 1547 1546 1545 1546 1548 1549 1550 1550 1550 1550 1551 1550 1549 1548 1547 1546
1490 1496 1502 1506 1511 1516 1519 1522 1524 1527 1528 1531 1533 1535 1537 1539 1539 1540 1540 1540 1540 1540 1539 1537 1536 1538 1539 1539 1539 1539 1539 1541 1543 1544 1543 1544 1544 1543 1543 1542 1541 1540 1539
1485 1491 1496 1500 1504 1509 1513 1516 1518 1521 1522 1526 1528 1529 1530 1532 1532 1533 1533 1532 1532 1532 1528 1528 1529 1530 1532 1531 1531 1532 1532 1536 1536 1537 1538 1537 1536 1536 1535 1534 1533 1533 1531
1481 1485 1489 1493 1496 1501 1505 1509 1512 1513 1515 1518 1519 1522 1522 1524 1524 1524 1525 1524 1524 1525 1522 1521 1521 1524 1524 1524 1523 1525 1528 1528 1530 1531 1531 1530 1529 1528 1528 1528 1527 1525 1524
1472 1477 1481 1484 1489 1494 1498 1501 1503 1506 1508 1510 1513 1514 1513 1514 1514 1516 1517 1516 1516 1517 1515 1514 1516 1517 1518 1519 1516 1518 1521 1522 1521 1523 1523 1522 1522 1522 1522 1521 1519 1518 1516
1465 1469 1473 1477 1481 1485 1489 1491 1494 1497 1499 1502 1504 1505 1503 1504 1505 1505 1503 1504 1505 1507 1508 1506 1509 1508 1510 1511 1512 1511 1514 1515 1516 1513 1514 1516 1515 1514 1513 1513 1512 1510 1508
1459 1463 1467 1469 1472 1476 1480 1482 1485 1488 1490 1492 1493 1494 1493 1495 1494 1495 1492 1491 1491 1495 1497 1496 1497 1500 1501 1500 1501 1503 1505 1506 1507 1508 1507 1507 1507 1506 1506 1504 1503 1501 1499
1451 1455 1458 1462 1466 1469 1473 1476 1478 1480 1481 1482 1482 1483 1484 1486 1485 1485 1484 1484 1485 1485 1487 1487 1486 1489 1490 1492 1494 1497 1498 1499 1501 1502 1500 1499 1498 1498 1498 1496 1495 1493 1491
1441 1445 1450 1454 1457 1460 1463 1466 1468 1470 1472 1472 1472 1473 1474 1475 1477 1477 1476 1476 1477 1477 1477 1476 1477 1476 1480 1482 1486 1490 1492 1495 1495 1496 1494 1493 1490 1490 1489 1488 1487 1485 1482
1432 1436 1438 1441 1445 1447 1449 1453 1458 1460 1461 1462 1462 1463 1464 1465 1466 1467 1467 1468 1467 1466 1466 1465 1463 1467 1468 1472 1478 1482 1483 1486 1490 1489 1489 1487 1486 1483 1483 1481 1481 1478 1475
1424 1425 1428 1431 1433 1436 1438 1442 1446 1450 1451 1451 1453 1453 1453 1455 1456 1456 1456 1455 1455 1452 1456 1458 1458 1461 1460 1462 1470 1476 1478 1478 1481 1485 1484 1480 1480 1477 1476 1475 1473 1470 1467
1412 1415 1418 1422 1425 1426 1427 1430 1435 1439 1441 1441 1441 1441 1443 1443 1444 1445 1446 1444 1444 1446 1447 1448 1454 1454 1458 1462 1463 1470 1472 1473 1474 1476 1475 1471 1472 1469 1469 1468 1466 1463 1460
1403 1406 1410 1412 1415 1419 1422 1425 1427 1430 1430 1431 1431 1432 1432 1432 1432 1433 1434 1436 1438 1440 1441 1445 1446 1452 1457 1461 1463 1466 1466 1466 1468 1468 1469 1466 1465 1462 1462 1458 1458 1454 1452
1395 1400 1404 1405 1407 1411 1413 1417 1418 1418 1419 1421 1421 1422 1422 1423 1423 1424 1426 1431 1435 1439 1441 1439 1442 1447 1453 1458 1457 1460 1460 1459 1461 1461 1461 1460 1459 1458 1451 1451 1449 1448 1445